Location: Balsareny
(41.8670°N, 1.8830°E)
Time: 00:33:58
(UTC+01:00)

N. Korean satellite - Visible Passes

Search period start: 01 December 2021 00:00
Search period end: 11 December 2021 00:00
Orbit: 447 x 495 km, 97.3° (Epoch: 30 November)

Date Brightness Start Highest point End Pass type
(mag) Time Alt. Az. Time Alt. Az. Time Alt. Az.
01 Dec 7.9 05:44:54 10° NNE 05:48:04 36° E 05:51:13 10° SSE visible
01 Dec 8.3 07:19:29 10° NW 07:20:55 12° WNW 07:22:20 10° W visible
01 Dec 8.7 17:52:07 10° SSW 17:55:19 31° W 17:58:31 10° NNW visible
02 Dec 9.4 05:17:16 10° NE 05:19:26 16° E 05:21:35 10° SE visible
02 Dec 7.4 06:49:46 10° NNW 06:52:39 26° WNW 06:55:31 10° SW visible
03 Dec 6.3 06:20:54 10° N 06:24:16 64° WNW 06:27:36 10° SSW visible
03 Dec 10.1 18:30:33 10° WSW 18:31:43 11° W 18:32:54 10° WNW visible
04 Dec 7.4 05:52:29 10° NNE 05:55:46 47° E 05:59:01 10° S visible
04 Dec 9.2 18:00:04 10° SSW 18:03:02 25° W 18:06:00 10° NW visible
05 Dec 9.1 05:24:34 10° NE 05:27:08 20° E 05:29:40 10° SE visible
05 Dec 7.6 06:57:38 10° NNW 07:00:15 21° WNW 07:02:51 10° WSW visible
06 Dec 6.5 06:28:34 10° N 06:31:52 49° WNW 06:35:08 10° SSW visible
07 Dec 6.8 06:00:00 10° NNE 06:03:21 62° E 06:06:42 10° S visible
07 Dec 9.5 18:08:01 10° SW 18:10:40 20° W 18:13:18 10° NW visible
08 Dec 8.7 05:31:53 10° NE 05:34:44 25° E 05:37:33 10° SSE visible
08 Dec 7.9 07:05:26 10° NNW 07:07:45 17° WNW 07:10:02 10° WSW visible
09 Dec 9.9 05:05:03 10° ENE 05:05:59 11° E 05:06:54 10° ESE visible
09 Dec 6.8 06:36:11 10° N 06:39:21 38° WNW 06:42:31 10° SW visible
10 Dec 6.4 06:09:33 35° NNE 06:10:51 81° ESE 06:14:14 10° S visible
10 Dec 9.7 18:15:58 10° SW 18:18:12 16° W 18:20:25 10° NW visible
